Glasgow, United Kingdom

7:10 PM BST on May 24, 2018 (GMT +0100)
Glasgow

Weather History for EGPF - April, 2014

Change the Weather History Date:

Saturday, April 26, 2014

  Actual Average Record
Temperature  
Mean Temperature 54 °F -  
Max Temperature 59 °F 56 °F 64 °F (2004)
Min Temperature 48 °F 41 °F 30 °F (2017)
Degree Days  
Heating Degree Days 12    
Growing Degree Days 4 (Base 50)    
Moisture  
Dew Point 47 °F    
Average Humidity 83    
Maximum Humidity 94    
Minimum Humidity 59    
Precipitation  
Precipitation 0.00 in - - ()
Sea Level Pressure  
Sea Level Pressure 29.60 in    
Wind  
Wind Speed 14 mph ()    
Max Wind Speed 21 mph    
Max Gust Speed 30 mph    
Visibility 6.0 miles    
Events Rain    
Averages and records for this station are not official NWS values.
T = Trace of Precipitation, MM = Missing Value Source: Averaged Metar Reports

Daily Weather History Graph

Daily Weather History Graph

Search for Another Location

Airport or City:

Astronomy

Apr. 26, 2014 Rise Set
Actual Time 5:46 AM BST 8:46 PM BST
Civil Twilight 5:03 AM BST 9:29 PM BST
Nautical Twilight 4:06 AM BST 10:26 PM BST
Astronomical Twilight 2:48 AM BST 11:47 PM BST
Moon 4:37 AM BST (4/26) 5:29 PM BST (4/26)
Length of Visible Light 16h 25m
Length of Day
15h 00m
Waning Crescent, 9% of the Moon is Illuminated
Apr 26
Waning Crescent
Apr 29
New
May 7
First Quarter
May 14
Full
May 21
Last Quarter

Hourly Weather History & Observations

Time (BST) Temp. Dew Point Humidity Pressure Visibility Wind Dir Wind Speed Gust Speed Precip Events Conditions
12:20 AM 48.2 °F 46.4 °F 93% 29.71 in 6.2 mi ENE 19.6 mph - N/A Rain Light Rain
12:50 AM 48.2 °F 46.4 °F 93% 29.68 in 4.3 mi East 20.7 mph - N/A Rain Light Rain
1:20 AM 48.2 °F 46.4 °F 93% 29.68 in 6.2 mi East 17.3 mph 28.8 mph N/A Rain Light Rain
1:50 AM 48.2 °F 46.4 °F 93% 29.65 in 6.2 mi East 18.4 mph - N/A Rain Light Rain
2:20 AM 48.2 °F 46.4 °F 93% 29.65 in 6.2 mi East 19.6 mph - N/A   Overcast
2:50 AM 48.2 °F 46.4 °F 93% 29.62 in 6.2 mi ENE 17.3 mph - N/A Rain Light Rain
3:50 AM 48.2 °F 46.4 °F 93% 29.59 in 6.2 mi East 18.4 mph - N/A Rain Light Rain
4:20 AM 48.2 °F 46.4 °F 93% 29.59 in 6.2 mi East 13.8 mph - N/A Rain Light Rain
4:50 AM 48.2 °F 46.4 °F 93% 29.59 in 3.1 mi East 16.1 mph - N/A Rain Rain
5:20 AM 48.2 °F 46.4 °F 93% 29.56 in 5.0 mi East 15.0 mph - N/A   Light Drizzle
5:50 AM 48.2 °F 46.4 °F 93% 29.56 in 6.2 mi East 12.7 mph - N/A   Overcast
6:20 AM 48.2 °F 46.4 °F 93% 29.56 in 6.2 mi East 10.4 mph - N/A   Overcast
6:50 AM 48.2 °F 46.4 °F 93% 29.56 in 6.2 mi East 11.5 mph - N/A   Overcast
7:20 AM 50.0 °F 48.2 °F 94% 29.56 in 6.2 mi East 11.5 mph - N/A   Mostly Cloudy
7:50 AM 50.0 °F 48.2 °F 94% 29.56 in 6.2 mi ENE 10.4 mph - N/A   Mostly Cloudy
8:20 AM 50.0 °F 48.2 °F 94% 29.56 in 6.2 mi ENE 11.5 mph - N/A   Scattered Clouds
8:50 AM 50.0 °F 48.2 °F 94% 29.56 in 6.2 mi ENE 11.5 mph - N/A   Scattered Clouds
9:20 AM 51.8 °F 48.2 °F 88% 29.56 in 6.2 mi ENE 12.7 mph - N/A   Scattered Clouds
9:50 AM 51.8 °F 48.2 °F 88% 29.56 in 6.2 mi ENE 13.8 mph - N/A   Scattered Clouds
10:20 AM 53.6 °F 50.0 °F 88% 29.53 in 6.2 mi ENE 11.5 mph - N/A   Mostly Cloudy
10:50 AM 53.6 °F 48.2 °F 82% 29.53 in 6.2 mi ENE 12.7 mph - N/A   Mostly Cloudy
11:20 AM 55.4 °F 46.4 °F 72% 29.53 in 6.2 mi East 13.8 mph - N/A   Mostly Cloudy
11:50 AM 55.4 °F 44.6 °F 67% 29.56 in 6.2 mi East 13.8 mph - N/A   Mostly Cloudy
12:20 PM 55.4 °F 46.4 °F 72% 29.56 in 6.2 mi East 12.7 mph - N/A   Mostly Cloudy
12:50 PM 53.6 °F 46.4 °F 77% 29.56 in 6.2 mi ESE 15.0 mph - N/A   Mostly Cloudy
1:20 PM 53.6 °F 46.4 °F 77% 29.56 in 6.2 mi East 11.5 mph - N/A   Mostly Cloudy
1:50 PM 55.4 °F 46.4 °F 72% 29.56 in 6.2 mi ESE 16.1 mph - N/A   Mostly Cloudy
2:20 PM 55.4 °F 46.4 °F 72% 29.59 in 6.2 mi ESE 13.8 mph 29.9 mph N/A   Mostly Cloudy
2:50 PM 57.2 °F 48.2 °F 72% 29.59 in 6.2 mi East 16.1 mph - N/A   Mostly Cloudy
3:20 PM 57.2 °F 46.4 °F 67% 29.59 in 6.2 mi East 13.8 mph - N/A   Mostly Cloudy
3:50 PM 59.0 °F 46.4 °F 63% 29.59 in 6.2 mi East 13.8 mph - N/A   Scattered Clouds
4:20 PM 59.0 °F 44.6 °F 59% 29.56 in 6.2 mi East 13.8 mph - N/A   Scattered Clouds
4:50 PM 59.0 °F 44.6 °F 59% 29.56 in 6.2 mi East 11.5 mph - N/A   Scattered Clouds
5:20 PM 59.0 °F 44.6 °F 59% 29.56 in 6.2 mi East 13.8 mph - N/A   Scattered Clouds
5:50 PM 59.0 °F 44.6 °F 59% 29.56 in 6.2 mi East 15.0 mph - N/A   Scattered Clouds
6:20 PM 59.0 °F 48.2 °F 67% 29.59 in 6.2 mi ENE 16.1 mph - N/A   Scattered Clouds
6:50 PM 57.2 °F 48.2 °F 72% 29.59 in 6.2 mi ENE 17.3 mph - N/A   Scattered Clouds
7:20 PM 55.4 °F 48.2 °F 77% 29.59 in 6.2 mi ENE 17.3 mph - N/A   Scattered Clouds
7:50 PM 53.6 °F 48.2 °F 82% 29.62 in 6.2 mi ENE 17.3 mph - N/A Rain Light Rain
8:20 PM 51.8 °F 48.2 °F 88% 29.62 in 6.2 mi ENE 16.1 mph - N/A   Partly Cloudy
8:50 PM 51.8 °F 48.2 °F 88% 29.65 in 6.2 mi ENE 13.8 mph - N/A   Partly Cloudy
9:20 PM 50.0 °F 46.4 °F 87% 29.65 in 6.2 mi ENE 12.7 mph - N/A   Partly Cloudy
9:50 PM 50.0 °F 46.4 °F 87% 29.65 in - ENE 12.7 mph - N/A   Clear
10:20 PM 50.0 °F 46.4 °F 87% 29.68 in 6.2 mi ENE 9.2 mph - N/A   Unknown
10:50 PM 50.0 °F 46.4 °F 87% 29.68 in 6.2 mi ENE 10.4 mph - N/A   Partly Cloudy
11:20 PM 48.2 °F 46.4 °F 93% 29.68 in 5.0 mi ENE 11.5 mph - N/A   Partly Cloudy
11:50 PM 48.2 °F 46.4 °F 93% 29.71 in 5.6 mi ENE 12.7 mph - N/A   Partly Cloudy